TimeEDT,TemperatureF,Dew PointF,Humidity,Sea Level PressureIn,VisibilityMPH,Wind Direction,Wind SpeedMPH,Gust SpeedMPH,PrecipitationIn,Events,Conditions,WindDirDegrees,DateUTC
12:54 AM,42.1,39.9,92,29.97,8.0,Calm,Calm,-,N/A,,Clear,0,2012-11-03 04:54:00
1:54 AM,42.1,39.0,89,29.99,10.0,Calm,Calm,-,N/A,,Clear,0,2012-11-03 05:54:00
2:54 AM,39.9,37.9,93,29.99,10.0,West,4.6,-,N/A,,Clear,270,2012-11-03 06:54:00
3:54 AM,41.0,37.0,86,29.99,10.0,WNW,4.6,-,N/A,,Clear,300,2012-11-03 07:54:00
4:54 AM,37.9,34.0,86,30.00,10.0,Calm,Calm,-,N/A,,Clear,0,2012-11-03 08:54:00
5:54 AM,37.0,35.1,93,30.01,10.0,Calm,Calm,-,N/A,,Clear,0,2012-11-03 09:54:00
6:54 AM,37.0,35.1,93,30.03,7.0,Calm,Calm,-,N/A,,Clear,0,2012-11-03 10:54:00
7:54 AM,39.0,34.0,82,30.06,10.0,Calm,Calm,-,N/A,,Clear,0,2012-11-03 11:54:00
8:54 AM,44.1,37.0,76,30.08,10.0,NW,4.6,-,N/A,,Clear,310,2012-11-03 12:54:00
9:54 AM,48.9,37.0,64,30.09,10.0,WNW,4.6,-,N/A,,Clear,300,2012-11-03 13:54:00
10:54 AM,50.0,35.1,57,30.09,10.0,NW,8.1,-,N/A,,Clear,320,2012-11-03 14:54:00
11:54 AM,55.0,35.1,47,30.08,10.0,NW,9.2,-,N/A,,Clear,310,2012-11-03 15:54:00
12:54 PM,55.9,33.1,42,30.06,10.0,WNW,10.4,-,N/A,,Clear,300,2012-11-03 16:54:00
1:54 PM,57.0,33.1,40,30.05,10.0,WNW,11.5,-,N/A,,Clear,300,2012-11-03 17:54:00
2:54 PM,57.9,33.1,39,30.04,10.0,WNW,10.4,17.3,N/A,,Clear,300,2012-11-03 18:54:00
3:54 PM,57.9,34.0,41,30.04,10.0,NW,10.4,-,N/A,,Clear,310,2012-11-03 19:54:00
4:54 PM,57.9,33.1,39,30.05,10.0,NW,9.2,-,N/A,,Clear,310,2012-11-03 20:54:00
5:54 PM,55.0,34.0,45,30.05,10.0,WNW,3.5,-,N/A,,Clear,290,2012-11-03 21:54:00
6:54 PM,48.0,39.9,74,30.06,10.0,Calm,Calm,-,N/A,,Clear,0,2012-11-03 22:54:00
7:54 PM,44.1,39.0,82,30.08,10.0,Calm,Calm,-,N/A,,Clear,0,2012-11-03 23:54:00
8:54 PM,43.0,39.9,89,30.08,10.0,Calm,Calm,-,N/A,,Clear,0,2012-11-04 00:54:00
9:54 PM,44.1,39.9,85,30.09,10.0,Calm,Calm,-,N/A,,Clear,0,2012-11-04 01:54:00
10:54 PM,41.0,39.0,93,30.09,10.0,Calm,Calm,-,N/A,,Clear,0,2012-11-04 02:54:00
11:54 PM,39.9,39.0,97,30.09,10.0,Calm,Calm,-,N/A,,Clear,0,2012-11-04 03:54:00